#Datum;Uhrzeit;WR;Pac;DaySum;Status;WR;Pac;DaySum;Status;Pdc1;Udc;Temp;WR;Pac;DaySum;Status;Pdc1;Udc;Temp;WR;Pac;DaySum;Status;Pdc1;Udc;Temp;WR;Pac;DaySum;Status;Pdc1;Pdc2;Udc1;Udc2;Temp;WR;Pac;DaySum;Status;Pdc1;Pdc2;Udc1;Udc2;Temp;WR;Pac;DaySum;Status;Pdc1;Udc;Temp;WR;Pac;DaySum;Status;Pdc1;Udc;Temp;WR;Pac;DaySum;Status;Pdc1;Udc;Temp
21.10.17;23:55:00;1;459;10700;0;2;0;10322;0;0;0;0;3;0;6537;0;0;0;0;4;0;9358;0;0;0;0;5;0;21425;0;0;0;0;0;0;6;0;16162;0;0;0;0;0;0;7;0;14054;0;0;0;0;8;0;13848;0;0;0;0;9;0;7505;0;0;0;0
21.10.17;23:50:00;1;447;10662;0;2;0;10322;0;0;0;0;3;0;6537;0;0;0;0;4;0;9358;0;0;0;0;5;0;21425;0;0;0;0;0;0;6;0;16162;0;0;0;0;0;0;7;0;14054;0;0;0;0;8;0;13848;0;0;0;0;9;0;7505;0;0;0;0
21.10.17;23:45:00;1;458;10624;0;2;0;10322;0;0;0;0;3;0;6537;0;0;0;0;4;0;9358;0;0;0;0;5;0;21425;0;0;0;0;0;0;6;0;16162;0;0;0;0;0;0;7;0;14054;0;0;0;0;8;0;13848;0;0;0;0;9;0;7505;0;0;0;0
21.10.17;23:40:00;1;458;10586;0;2;0;10322;0;0;0;0;3;0;6537;0;0;0;0;4;0;9358;0;0;0;0;5;0;21425;0;0;0;0;0;0;6;0;16162;0;0;0;0;0;0;7;0;14054;0;0;0;0;8;0;13848;0;0;0;0;9;0;7505;0;0;0;0
21.10.17;23:35:00;1;461;10548;0;2;0;10322;0;0;0;0;3;0;6537;0;0;0;0;4;0;9358;0;0;0;0;5;0;21425;0;0;0;0;0;0;6;0;16162;0;0;0;0;0;0;7;0;14054;0;0;0;0;8;0;13848;0;0;0;0;9;0;7505;0;0;0;0
21.10.17;23:30:00;1;547;10509;0;2;0;10322;0;0;0;0;3;0;6537;0;0;0;0;4;0;9358;0;0;0;0;5;0;21425;0;0;0;0;0;0;6;0;16162;0;0;0;0;0;0;7;0;14054;0;0;0;0;8;0;13848;0;0;0;0;9;0;7505;0;0;0;0
21.10.17;23:25:00;1;622;10463;0;2;0;10322;0;0;0;0;3;0;6537;0;0;0;0;4;0;9358;0;0;0;0;5;0;21425;0;0;0;0;0;0;6;0;16162;0;0;0;0;0;0;7;0;14054;0;0;0;0;8;0;13848;0;0;0;0;9;0;7505;0;0;0;0
21.10.17;23:20:00;1;638;10411;0;2;0;10322;0;0;0;0;3;0;6537;0;0;0;0;4;0;9358;0;0;0;0;5;0;21425;0;0;0;0;0;0;6;0;16162;0;0;0;0;0;0;7;0;14054;0;0;0;0;8;0;13848;0;0;0;0;9;0;7505;0;0;0;0
21.10.17;23:15:00;1;594;10358;0;2;0;10322;0;0;0;0;3;0;6537;0;0;0;0;4;0;9358;0;0;0;0;5;0;21425;0;0;0;0;0;0;6;0;16162;0;0;0;0;0;0;7;0;14054;0;0;0;0;8;0;13848;0;0;0;0;9;0;7505;0;0;0;0
21.10.17;23:10:00;1;536;10308;0;2;0;10322;0;0;0;0;3;0;6537;0;0;0;0;4;0;9358;0;0;0;0;5;0;21425;0;0;0;0;0;0;6;0;16162;0;0;0;0;0;0;7;0;14054;0;0;0;0;8;0;13848;0;0;0;0;9;0;7505;0;0;0;0
21.10.17;23:05:00;1;474;10266;0;2;0;10322;0;0;0;0;3;0;6537;0;0;0;0;4;0;9358;0;0;0;0;5;0;21425;0;0;0;0;0;0;6;0;16162;0;0;0;0;0;0;7;0;14054;0;0;0;0;8;0;13848;0;0;0;0;9;0;7505;0;0;0;0
21.10.17;23:00:00;1;626;10227;0;2;0;10322;0;0;0;0;3;0;6537;0;0;0;0;4;0;9358;0;0;0;0;5;0;21425;0;0;0;0;0;0;6;0;16162;0;0;0;0;0;0;7;0;14054;0;0;0;0;8;0;13848;0;0;0;0;9;0;7505;0;0;0;0
21.10.17;22:55:00;1;642;10174;0;2;0;10322;0;0;0;0;3;0;6537;0;0;0;0;4;0;9358;0;0;0;0;5;0;21425;2;0;0;0;0;0;6;0;16162;2;0;0;0;0;0;7;0;14054;0;0;0;0;8;0;13848;0;0;0;0;9;0;7505;0;0;0;0
21.10.17;22:50:00;1;520;10121;0;2;0;10322;0;0;0;0;3;0;6537;0;0;0;0;4;0;9358;0;0;0;0;5;0;21425;2;0;0;0;0;0;6;0;16162;2;0;0;0;0;0;7;0;14054;0;0;0;0;8;0;13848;0;0;0;0;9;0;7505;0;0;0;0
21.10.17;22:45:00;1;533;10078;0;2;0;10322;0;0;0;0;3;0;6537;0;0;0;0;4;0;9358;0;0;0;0;5;0;21425;2;0;0;0;0;0;6;0;16162;2;0;0;0;0;0;7;0;14054;0;0;0;0;8;0;13848;0;0;0;0;9;0;7505;0;0;0;0
21.10.17;22:40:00;1;592;10034;0;2;0;10322;0;0;0;0;3;0;6537;0;0;0;0;4;0;9358;0;0;0;0;5;0;21425;2;0;0;0;0;0;6;0;16162;2;0;0;0;0;0;7;0;14054;0;0;0;0;8;0;13848;0;0;0;0;9;0;7505;0;0;0;0
21.10.17;22:35:00;1;602;9984;0;2;0;10322;0;0;0;0;3;0;6537;0;0;0;0;4;0;9358;0;0;0;0;5;0;21425;2;0;0;0;0;0;6;0;16162;2;0;0;0;0;0;7;0;14054;0;0;0;0;8;0;13848;0;0;0;0;9;0;7505;0;0;0;0
21.10.17;22:30:00;1;624;9934;0;2;0;10322;0;0;0;0;3;0;6537;0;0;0;0;4;0;9358;0;0;0;0;5;0;21425;2;0;0;0;0;0;6;0;16162;2;0;0;0;0;0;7;0;14054;0;0;0;0;8;0;13848;0;0;0;0;9;0;7505;0;0;0;0
21.10.17;22:25:00;1;596;9882;0;2;0;10322;0;0;0;0;3;0;6537;0;0;0;0;4;0;9358;0;0;0;0;5;0;21425;2;0;0;0;0;0;6;0;16162;2;0;0;0;0;0;7;0;14054;0;0;0;0;8;0;13848;0;0;0;0;9;0;7505;0;0;0;0
21.10.17;22:20:00;1;596;9832;0;2;0;10322;0;0;0;0;3;0;6537;0;0;0;0;4;0;9358;0;0;0;0;5;0;21425;2;0;0;0;0;0;6;0;16162;2;0;0;0;0;0;7;0;14054;0;0;0;0;8;0;13848;0;0;0;0;9;0;7505;0;0;0;0
21.10.17;22:15:00;1;579;9783;0;2;0;10322;0;0;0;0;3;0;6537;0;0;0;0;4;0;9358;0;0;0;0;5;0;21425;2;0;0;0;0;0;6;0;16162;2;0;0;0;0;0;7;0;14054;0;0;0;0;8;0;13848;0;0;0;0;9;0;7505;0;0;0;0
21.10.17;22:10:00;1;673;9733;0;2;0;10322;0;0;0;0;3;0;6537;0;0;0;0;4;0;9358;0;0;0;0;5;0;21425;2;0;0;0;0;0;6;0;16162;2;0;0;0;0;0;7;0;14054;0;0;0;0;8;0;13848;0;0;0;0;9;0;7505;0;0;0;0
21.10.17;22:05:00;1;665;9677;0;2;0;10322;0;0;0;0;3;0;6537;0;0;0;0;4;0;9358;0;0;0;0;5;0;21425;2;0;0;0;0;0;6;0;16162;2;0;0;0;0;0;7;0;14054;0;0;0;0;8;0;13848;0;0;0;0;9;0;7505;0;0;0;0
21.10.17;22:00:00;1;573;9620;0;2;0;10322;0;0;0;0;3;0;6537;0;0;0;0;4;0;9358;0;0;0;0;5;0;21425;2;0;0;0;0;0;6;0;16162;2;0;0;0;0;0;7;0;14054;0;0;0;0;8;0;13848;0;0;0;0;9;0;7505;0;0;0;0
21.10.17;21:55:00;1;523;9573;0;2;0;10322;0;0;0;0;3;0;6537;0;0;0;0;4;0;9358;0;0;0;0;5;0;21425;2;0;0;0;0;0;6;0;16162;2;0;0;0;0;0;7;0;14054;0;0;0;0;8;0;13848;0;0;0;0;9;0;7505;0;0;0;0
21.10.17;21:50:00;1;579;9528;0;2;0;10322;0;0;0;0;3;0;6537;0;0;0;0;4;0;9358;0;0;0;0;5;0;21425;2;0;0;0;0;0;6;0;16162;2;0;0;0;0;0;7;0;14054;0;0;0;0;8;0;13848;0;0;0;0;9;0;7505;0;0;0;0
21.10.17;21:45:00;1;499;9480;0;2;0;10322;0;0;0;0;3;0;6537;0;0;0;0;4;0;9358;0;0;0;0;5;0;21425;2;0;0;0;0;0;6;0;16162;2;0;0;0;0;0;7;0;14054;0;0;0;0;8;0;13848;0;0;0;0;9;0;7505;0;0;0;0
21.10.17;21:40:00;1;462;9439;0;2;0;10322;0;0;0;0;3;0;6537;0;0;0;0;4;0;9358;0;0;0;0;5;0;21425;2;0;0;0;0;0;6;0;16162;2;0;0;0;0;0;7;0;14054;0;0;0;0;8;0;13848;0;0;0;0;9;0;7505;0;0;0;0
21.10.17;21:35:00;1;480;9402;0;2;0;10322;0;0;0;0;3;0;6537;0;0;0;0;4;0;9358;0;0;0;0;5;0;21425;2;0;0;0;0;0;6;0;16162;2;0;0;0;0;0;7;0;14054;0;0;0;0;8;0;13848;0;0;0;0;9;0;7505;0;0;0;0
21.10.17;21:30:00;1;516;9361;0;2;0;10322;0;0;0;0;3;0;6537;0;0;0;0;4;0;9358;0;0;0;0;5;0;21425;2;0;0;0;0;0;6;0;16162;2;0;0;0;0;0;7;0;14054;0;0;0;0;8;0;13848;0;0;0;0;9;0;7505;0;0;0;0
21.10.17;21:25:00;1;559;9318;0;2;0;10322;0;0;0;0;3;0;6537;0;0;0;0;4;0;9358;0;0;0;0;5;0;21425;2;0;0;0;0;0;6;0;16162;2;0;0;0;0;0;7;0;14054;0;0;0;0;8;0;13848;0;0;0;0;9;0;7505;0;0;0;0
21.10.17;21:20:00;1;451;9273;0;2;0;10322;0;0;0;0;3;0;6537;0;0;0;0;4;0;9358;0;0;0;0;5;0;21425;2;0;0;0;0;0;6;0;16162;2;0;0;0;0;0;7;0;14054;0;0;0;0;8;0;13848;0;0;0;0;9;0;7505;0;0;0;0
21.10.17;21:15:00;1;428;9237;0;2;0;10322;0;0;0;0;3;0;6537;0;0;0;0;4;0;9358;0;0;0;0;5;0;21425;2;0;0;0;0;0;6;0;16162;2;0;0;0;0;0;7;0;14054;0;0;0;0;8;0;13848;0;0;0;0;9;0;7505;0;0;0;0
21.10.17;21:10:00;1;358;9201;0;2;0;10322;0;0;0;0;3;0;6537;0;0;0;0;4;0;9358;0;0;0;0;5;0;21425;2;0;0;0;0;0;6;0;16162;2;0;0;0;0;0;7;0;14054;0;0;0;0;8;0;13848;0;0;0;0;9;0;7505;0;0;0;0
21.10.17;21:05:00;1;384;9171;0;2;0;10322;0;0;0;0;3;0;6537;0;0;0;0;4;0;9358;0;0;0;0;5;0;21425;2;0;0;0;0;0;6;0;16162;2;0;0;0;0;0;7;0;14054;0;0;0;0;8;0;13848;0;0;0;0;9;0;7505;0;0;0;0
21.10.17;21:00:00;1;438;9137;0;2;0;10322;0;0;0;0;3;0;6537;0;0;0;0;4;0;9358;0;0;0;0;5;0;21425;2;0;0;0;0;0;6;0;16162;2;0;0;0;0;0;7;0;14054;0;0;0;0;8;0;13848;0;0;0;0;9;0;7505;0;0;0;0
21.10.17;20:55:00;1;434;9100;0;2;0;10322;0;0;0;0;3;0;6537;0;0;0;0;4;0;9358;0;0;0;0;5;0;21425;2;0;0;0;0;0;6;0;16162;2;0;0;0;0;0;7;0;14054;0;0;0;0;8;0;13848;0;0;0;0;9;0;7505;0;0;0;0
21.10.17;20:50:00;1;432;9064;0;2;0;10322;0;0;0;0;3;0;6537;0;0;0;0;4;0;9358;0;0;0;0;5;0;21425;2;0;0;0;0;0;6;0;16162;2;0;0;0;0;0;7;0;14054;0;0;0;0;8;0;13848;0;0;0;0;9;0;7505;0;0;0;0
21.10.17;20:45:00;1;474;9028;0;2;0;10322;0;0;0;0;3;0;6537;0;0;0;0;4;0;9358;0;0;0;0;5;0;21425;2;0;0;0;0;0;6;0;16162;2;0;0;0;0;0;7;0;14054;0;0;0;0;8;0;13848;0;0;0;0;9;0;7505;0;0;0;0
21.10.17;20:40:00;1;474;8988;0;2;0;10322;0;0;0;0;3;0;6537;0;0;0;0;4;0;9358;0;0;0;0;5;0;21425;2;0;0;0;0;0;6;0;16162;2;0;0;0;0;0;7;0;14054;0;0;0;0;8;0;13848;0;0;0;0;9;0;7505;0;0;0;0
21.10.17;20:35:00;1;478;8949;0;2;0;10322;0;0;0;0;3;0;6537;0;0;0;0;4;0;9358;0;0;0;0;5;0;21425;2;0;0;0;0;0;6;0;16162;2;0;0;0;0;0;7;0;14054;0;0;0;0;8;0;13848;0;0;0;0;9;0;7505;0;0;0;0
21.10.17;20:30:00;1;434;8908;0;2;0;10322;0;0;0;0;3;0;6537;0;0;0;0;4;0;9358;0;0;0;0;5;0;21425;2;0;0;0;0;0;6;0;16162;2;0;0;0;0;0;7;0;14054;0;0;0;0;8;0;13848;0;0;0;0;9;0;7505;0;0;0;0
21.10.17;20:25:00;1;435;8872;0;2;0;10322;0;0;0;0;3;0;6537;0;0;0;0;4;0;9358;0;0;0;0;5;0;21425;2;0;0;0;0;0;6;0;16162;2;0;0;0;0;0;7;0;14054;0;0;0;0;8;0;13848;0;0;0;0;9;0;7505;0;0;0;0
21.10.17;20:20:00;1;433;8836;0;2;0;10322;0;0;0;0;3;0;6537;0;0;0;0;4;0;9358;0;0;0;0;5;0;21425;2;0;0;0;0;0;6;0;16162;2;0;0;0;0;0;7;0;14054;0;0;0;0;8;0;13848;0;0;0;0;9;0;7505;0;0;0;0
21.10.17;20:15:00;1;436;8800;0;2;0;10322;0;0;0;0;3;0;6537;0;0;0;0;4;0;9358;0;0;0;0;5;0;21425;2;0;0;0;0;0;6;0;16162;2;0;0;0;0;0;7;0;14054;0;0;0;0;8;0;13848;0;0;0;0;9;0;7505;0;0;0;0
21.10.17;20:10:00;1;436;8763;0;2;0;10322;0;0;0;0;3;0;6537;0;0;0;0;4;0;9358;0;0;0;0;5;0;21425;2;0;0;0;0;0;6;0;16162;2;0;0;0;0;0;7;0;14054;0;0;0;0;8;0;13848;0;0;0;0;9;0;7505;0;0;0;0
21.10.17;20:05:00;1;461;8727;0;2;0;10322;0;0;0;0;3;0;6537;0;0;0;0;4;0;9358;0;0;0;0;5;0;21425;2;0;0;0;0;0;6;0;16162;2;0;0;0;0;0;7;0;14054;0;0;0;0;8;0;13848;0;0;0;0;9;0;7505;0;0;0;0
21.10.17;20:00:00;1;645;8687;0;2;0;10322;0;0;0;0;3;0;6537;0;0;0;0;4;0;9358;0;0;0;0;5;0;21425;2;0;0;0;0;0;6;0;16162;2;0;0;0;0;0;7;0;14054;0;0;0;0;8;0;13848;0;0;0;0;9;0;7505;0;0;0;0
21.10.17;19:55:00;1;669;8633;0;2;0;10322;0;0;0;0;3;0;6537;0;0;0;0;4;0;9358;0;0;0;0;5;0;21425;2;0;0;0;0;0;6;0;16162;2;0;0;0;0;0;7;0;14054;0;0;0;0;8;0;13848;0;0;0;0;9;0;7505;0;0;0;0
21.10.17;19:50:00;1;686;8577;0;2;0;10322;0;0;0;0;3;0;6537;0;0;0;0;4;0;9358;0;0;0;0;5;0;21425;2;0;0;0;0;0;6;0;16162;2;0;0;0;0;0;7;0;14054;0;0;0;0;8;0;13848;0;0;0;0;9;0;7505;0;0;0;0
21.10.17;19:45:00;1;724;8520;0;2;0;10322;0;0;0;0;3;0;6537;0;0;0;0;4;0;9358;0;0;0;0;5;0;21425;2;0;0;0;0;0;6;0;16162;2;0;0;0;0;0;7;0;14054;0;0;0;0;8;0;13848;0;0;0;0;9;0;7505;0;0;0;0
21.10.17;19:40:00;1;949;8455;0;2;0;10322;0;0;0;0;3;0;6537;0;0;0;0;4;0;9358;0;0;0;0;5;0;21425;2;0;0;0;0;0;6;0;16162;2;0;0;0;0;0;7;0;14054;0;0;0;0;8;0;13848;0;0;0;0;9;0;7505;0;0;0;0
21.10.17;19:35:00;1;944;8374;0;2;0;10322;0;0;0;0;3;0;6537;0;0;0;0;4;0;9358;0;0;0;0;5;0;21425;2;0;0;0;0;0;6;0;16162;2;0;0;0;0;0;7;0;14054;0;0;0;0;8;0;13848;0;0;0;0;9;0;7505;0;0;0;0
21.10.17;19:30:00;1;905;8295;0;2;0;10322;0;0;0;0;3;0;6537;0;0;0;0;4;0;9358;0;0;0;0;5;0;21425;2;0;0;0;0;0;6;0;16162;2;0;0;0;0;0;7;0;14054;0;0;0;0;8;0;13848;0;0;0;0;9;0;7505;0;0;0;0
21.10.17;19:25:00;1;895;8219;0;2;0;10322;0;0;0;0;3;0;6537;0;0;0;0;4;0;9358;0;0;0;0;5;0;21425;2;0;0;0;0;0;6;0;16162;2;0;0;0;0;0;7;0;14054;0;0;0;0;8;0;13848;0;0;0;0;9;0;7505;0;0;0;0
21.10.17;19:20:00;1;888;8144;0;2;0;10322;0;0;0;0;3;0;6537;0;0;0;0;4;0;9358;0;0;0;0;5;0;21425;2;0;0;0;0;0;6;0;16162;2;0;0;0;0;0;7;0;14054;0;0;0;0;8;0;13848;0;0;0;0;9;0;7505;0;0;0;0
21.10.17;19:15:00;1;865;8070;0;2;0;10322;0;0;0;0;3;0;6537;0;0;0;0;4;0;9358;0;0;0;0;5;0;21425;2;0;0;0;0;0;6;0;16162;2;0;0;0;0;0;7;0;14054;0;0;0;0;8;0;13848;0;0;0;0;9;0;7505;0;0;0;0
21.10.17;19:10:00;1;803;7996;0;2;0;10322;0;0;0;0;3;0;6537;0;0;0;0;4;0;9358;0;0;0;0;5;0;21425;2;0;0;0;0;0;6;0;16162;2;0;0;0;0;0;7;0;14054;0;0;0;0;8;0;13848;0;0;0;0;9;0;7505;0;0;0;0
21.10.17;19:05:00;1;795;7929;0;2;0;10322;0;0;0;0;3;0;6537;0;0;0;0;4;0;9358;0;0;0;0;5;0;21425;2;0;0;0;0;0;6;0;16162;2;0;0;0;0;0;7;0;14054;0;0;0;0;8;0;13848;0;0;0;0;9;0;7505;0;0;0;0
21.10.17;19:00:00;1;841;7862;0;2;0;10322;0;0;0;0;3;0;6537;0;0;0;0;4;0;9358;0;0;0;0;5;0;21425;2;0;0;0;0;0;6;0;16162;2;0;0;0;0;0;7;0;14054;0;0;0;0;8;0;13848;0;0;0;0;9;0;7505;0;0;0;0
21.10.17;18:55:00;1;849;7791;0;2;0;10322;0;0;0;0;3;0;6537;0;0;0;0;4;0;9358;0;0;0;0;5;0;21425;2;0;0;0;0;0;6;0;16162;2;0;0;0;0;0;7;0;14054;0;0;0;0;8;0;13848;0;0;0;0;9;0;7505;0;0;0;0
21.10.17;18:50:00;1;905;7720;0;2;0;10322;0;0;0;0;3;0;6537;0;0;0;0;4;0;9358;0;0;0;0;5;0;21425;2;0;0;0;0;0;6;0;16162;2;0;0;0;0;0;7;0;14054;0;0;0;0;8;0;13848;0;0;0;0;9;0;7505;0;0;0;0
21.10.17;18:45:00;1;861;7645;0;2;0;10322;0;0;0;0;3;0;6537;0;0;0;0;4;0;9358;0;0;0;0;5;0;21425;2;0;0;0;0;0;6;0;16162;2;0;0;0;0;0;7;0;14054;0;0;0;0;8;0;13848;0;0;0;0;9;0;7505;0;0;0;0
21.10.17;18:40:00;1;917;7573;0;2;0;10322;0;0;0;0;3;0;6537;0;0;0;0;4;0;9358;0;0;0;0;5;0;21425;2;0;0;0;0;0;6;0;16162;2;0;0;0;0;0;7;0;14054;0;0;0;0;8;0;13848;0;0;0;0;9;0;7505;0;0;0;0
21.10.17;18:35:00;1;1032;7494;0;2;0;10322;0;0;0;0;3;0;6537;0;0;0;0;4;0;9358;0;0;0;0;5;0;21425;2;0;0;0;0;0;6;0;16162;2;0;0;0;0;0;7;0;14054;0;0;0;0;8;0;13848;0;0;0;0;9;0;7505;0;0;0;0
21.10.17;18:30:00;1;956;7408;0;2;0;10322;0;0;0;0;3;0;6537;0;0;0;0;4;0;9358;0;0;0;0;5;0;21425;2;0;0;0;0;0;6;0;16162;2;0;0;0;0;0;7;0;14054;0;0;0;0;8;0;13848;0;0;0;0;9;0;7505;0;0;0;0
21.10.17;18:25:00;1;1139;7331;0;2;0;10322;0;0;0;0;3;0;6537;0;0;114;10;4;0;9358;0;0;7;3;5;0;21425;2;0;0;0;0;0;6;0;16162;2;0;0;0;0;0;7;0;14054;0;0;0;0;8;0;13848;0;0;0;0;9;0;7505;0;0;0;0
21.10.17;18:20:00;1;933;7236;0;2;0;10322;6;0;301;21;3;0;6537;6;0;362;24;4;0;9358;2;0;101;24;5;0;21425;2;5;0;192;107;20;6;0;16162;2;6;0;107;228;19;7;0;14054;0;0;113;10;8;0;13848;0;0;113;9;9;0;7505;0;0;118;8
21.10.17;18:15:00;1;865;7159;0;2;0;10322;6;0;332;22;3;0;6537;4;1;401;24;4;0;9358;1;0;141;24;5;0;21425;23;8;0;355;179;33;6;0;16162;23;11;0;180;450;31;7;0;14054;6;0;284;25;8;0;13848;6;0;290;24;9;0;7505;6;0;309;21
21.10.17;18:10:00;1;903;7086;0;2;0;10322;6;0;337;22;3;0;6537;6;2;405;24;4;0;9358;1;0;144;24;5;0;21425;23;8;0;253;432;34;6;0;16162;23;6;5;369;350;31;7;0;14054;6;0;283;25;8;0;13848;6;0;288;24;9;0;7505;6;0;305;21
21.10.17;18:05:00;1;1222;7012;0;2;0;10322;6;0;351;22;3;0;6537;6;1;426;25;4;0;9358;1;0;166;25;5;0;21425;23;8;0;316;323;34;6;0;16162;23;7;4;349;348;32;7;0;14054;6;0;322;25;8;0;13848;6;0;327;25;9;0;7505;6;0;344;21
21.10.17;18:00:00;1;864;6913;0;2;0;10322;6;0;373;23;3;1;6537;6;6;426;25;4;0;9358;1;0;201;25;5;0;21425;23;6;0;402;458;35;6;0;16162;23;7;0;311;544;32;7;0;14054;6;2;379;25;8;0;13848;6;0;394;25;9;0;7505;6;1;399;22
21.10.17;17:55:00;1;848;6841;0;2;0;10322;6;0;388;23;3;1;6537;6;4;474;25;4;0;9358;3;0;209;26;5;56;21424;4;36;15;325;511;36;6;0;16162;23;10;1;450;560;33;7;0;14054;6;1;420;26;8;1;13848;3;3;410;25;9;0;7505;6;2;460;22
21.10.17;17:50:00;1;829;6771;0;2;0;10322;6;0;398;23;3;0;6537;6;0;500;25;4;0;9358;3;0;218;26;5;73;21420;4;56;29;325;512;36;6;0;16162;8;7;3;510;569;33;7;2;14054;6;9;415;26;8;2;13848;6;5;438;26;9;0;7505;6;0;498;22
21.10.17;17:45:00;1;1340;6700;0;2;5;10322;6;11;396;24;3;2;6537;3;13;475;26;4;0;9358;3;0;199;27;5;97;21413;4;67;37;325;511;36;6;57;16161;4;29;20;428;219;34;7;1;14054;6;6;452;26;8;1;13848;6;7;454;26;9;3;7505;3;9;479;22
21.10.17;17:40:00;1;635;6631;0;2;52;10322;4;87;358;25;3;5;6537;6;12;503;26;4;15;9358;3;16;198;27;5;137;21405;4;75;47;325;511;36;6;80;16157;4;49;29;428;219;35;7;32;14054;6;57;401;27;8;31;13848;6;55;380;26;9;3;7505;6;9;511;23
21.10.17;17:35:00;1;584;6579;0;2;84;10317;4;119;358;25;3;24;6537;6;40;470;27;4;34;9357;3;35;197;27;5;181;21393;4;123;78;325;511;36;6;104;16150;4;60;38;428;219;35;7;66;14052;4;102;413;27;8;66;13846;4;99;403;27;9;6;7505;6;10;531;23
21.10.17;17:30:00;1;811;6528;0;2;127;10310;4;163;365;25;3;72;6535;4;109;454;27;4;78;9354;3;82;201;27;5;252;21378;4;175;112;375;511;36;6;138;16141;4;93;51;428;219;35;7;114;14046;4;153;410;27;8;119;13840;4;150;410;27;9;51;7504;6;74;476;24
21.10.17;17:25:00;1;719;6461;0;2;168;10300;4;207;365;26;3;95;6529;4;137;478;27;4;127;9348;5;132;213;27;5;311;21356;4;195;119;386;511;36;6;164;16130;4;112;60;428;219;35;7;154;14037;4;192;411;27;8;160;13831;4;193;410;27;9;81;7500;4;112;465;24
21.10.17;17:20:00;1;767;6402;0;2;193;10286;4;233;363;26;3;114;6521;4;154;460;27;4;134;9338;5;140;215;28;5;375;21330;4;225;155;383;588;36;6;183;16116;4;108;60;428;219;35;7;181;14025;4;223;416;27;8;181;13817;4;221;410;27;9;94;7494;4;127;481;24
21.10.17;17:15:00;1;1342;6338;0;2;221;10270;4;263;362;26;3;133;6511;4;175;473;28;4;163;9326;5;169;219;28;5;423;21298;4;269;197;389;614;36;6;199;16101;4;123;68;428;219;35;7;211;14009;4;242;448;28;8;206;13802;4;245;445;27;9;111;7486;4;141;493;25
21.10.17;17:10:00;1;694;6258;0;2;203;10252;4;243;362;26;3;121;6500;4;160;481;28;4;147;9313;5;153;217;28;5;404;21263;4;246;178;389;618;37;6;199;16084;4;148;83;428;219;35;7;186;13992;4;235;422;28;8;192;13785;4;232;422;27;9;100;7477;4;133;485;25
21.10.17;17:05:00;1;721;6200;0;2;222;10235;4;262;361;27;3;131;6490;4;173;477;28;4;164;9301;5;171;218;28;5;472;21229;4;273;203;392;618;37;6;234;16068;4;153;79;454;219;35;7;215;13976;4;258;429;28;8;213;13769;4;255;419;28;9;109;7468;4;145;491;25
21.10.17;17:00:00;1;700;6139;0;2;315;10216;4;360;375;27;3;191;6479;4;235;474;28;4;251;9287;5;262;221;28;5;639;21189;4;373;277;394;623;37;6;337;16048;4;223;104;548;219;35;7;327;13959;4;370;451;28;8;333;13751;4;374;439;28;9;172;7459;4;210;487;25
21.10.17;16:55:00;1;706;6081;0;2;455;10190;4;504;380;27;3;282;6463;4;329;484;29;4;370;9266;5;386;227;29;5;828;21134;4;475;364;399;631;37;6;442;16018;4;308;137;563;219;35;7;502;13931;4;553;458;28;8;503;13723;4;549;453;28;9;267;7445;4;306;502;26
21.10.17;16:50:00;1;708;6022;0;2;501;10152;4;550;379;28;3;306;6440;4;357;488;29;4;406;9235;5;423;230;29;5;891;21064;4;539;410;397;635;37;6;471;15981;4;312;134;551;219;35;7;584;13889;4;636;462;29;8;586;13682;4;636;460;28;9;308;7422;4;344;508;26
21.10.17;16:45:00;1;709;5963;0;2;502;10111;4;555;382;28;3;306;6414;4;355;490;29;4;395;9201;5;411;232;29;5;879;20990;4;503;386;399;628;37;6;468;15942;4;332;145;555;219;35;7;604;13841;4;658;458;29;8;604;13633;4;654;458;28;9;276;7397;4;318;531;26
21.10.17;16:40:00;1;708;5904;0;2;435;10069;4;483;382;28;3;270;6389;4;315;483;29;4;352;9169;5;366;229;29;5;803;20917;4;470;357;396;628;37;6;428;15902;4;286;129;539;219;35;7;487;13791;4;539;455;29;8;494;13583;4;541;451;29;9;257;7374;4;296;503;26
21.10.17;16:35:00;1;699;5845;0;2;302;10033;4;345;372;28;3;185;6367;4;226;483;29;4;240;9139;5;249;223;29;5;547;20851;4;331;221;395;542;37;6;274;15868;4;188;100;431;219;35;7;324;13750;4;374;454;29;8;329;13542;4;374;449;29;9;180;7353;4;213;482;26
21.10.17;16:30:00;1;386;5791;0;2;146;10007;4;183;360;28;3;86;6351;4;123;463;29;4;91;9119;5;95;202;30;5;286;20807;4;186;115;377;512;38;6;153;15846;4;105;60;428;219;35;7;157;13723;4;196;409;29;8;151;13514;4;189;436;29;9;82;7337;4;113;473;27
21.10.17;16:25:00;1;417;5759;0;2;156;9994;4;193;359;29;3;85;6343;4;124;473;29;4;111;9111;3;116;206;30;5;344;20783;4;222;141;381;511;38;6;176;15833;4;107;61;428;219;36;7;217;13709;4;256;427;30;8;208;13501;4;254;447;29;9;110;7330;4;143;487;27
21.10.17;16:20:00;1;421;5724;0;2;159;9982;4;197;358;29;3;92;6336;4;129;437;30;4;117;9102;5;121;207;30;5;321;20754;4;173;116;334;512;38;6;180;15818;4;108;60;428;219;36;7;217;13691;4;265;448;30;8;222;13484;4;262;446;30;9;119;7321;4;150;478;27
21.10.17;16:15:00;1;461;5689;0;2;86;9968;4;124;355;30;3;21;6329;6;38;465;30;4;59;9092;3;62;197;31;5;220;20728;4;132;89;332;512;38;6;124;15804;4;71;42;428;219;36;7;126;13674;4;156;402;31;8;117;13466;4;153;399;30;9;57;7311;4;86;393;28
21.10.17;16:10:00;1;380;5654;0;2;113;9961;4;152;355;31;3;61;6327;4;100;456;31;4;71;9087;3;73;199;31;5;297;20710;4;198;127;374;528;38;6;166;15793;4;96;66;428;267;36;7;134;13663;4;174;392;31;8;135;13456;4;167;387;31;9;71;7306;4;100;450;28
21.10.17;16:05:00;1;379;5622;0;2;205;9952;4;247;358;32;3;119;6322;4;159;468;31;4;166;9081;5;172;211;32;5;524;20684;4;312;233;384;603;39;6;380;15778;4;188;207;508;500;36;7;210;13651;4;254;426;31;8;211;13444;4;253;429;31;9;112;7300;4;145;478;29
21.10.17;16:00:00;1;385;5591;0;2;315;9935;4;360;361;33;3;193;6312;4;235;472;32;4;265;9067;5;276;218;32;5;741;20639;4;434;329;389;621;39;6;549;15745;4;269;287;529;525;36;7;336;13634;4;375;432;32;8;337;13427;4;380;433;31;9;178;7291;4;216;474;30
21.10.17;15:55:00;1;868;5559;0;2;448;9909;4;501;371;34;3;275;6296;4;324;471;33;4;378;9045;5;394;220;33;5;982;20576;4;574;437;392;629;39;6;730;15699;4;358;365;536;527;36;7;470;13607;4;518;437;32;8;462;13399;4;515;435;32;9;249;7277;4;288;481;31
21.10.17;15:50:00;1;1101;5464;0;2;923;9872;4;992;378;36;3;539;6274;4;599;501;34;4;729;9014;5;760;228;34;5;1637;20492;4;942;741;405;640;39;6;1213;15636;4;618;624;557;540;37;7;920;13568;4;986;456;33;8;933;13361;4;996;454;32;9;495;7256;4;548;502;32
21.10.17;15:45:00;1;394;5397;0;2;1888;9794;4;1995;392;37;3;939;6228;4;1015;511;34;4;1420;8953;5;1479;235;34;5;3110;20340;4;1799;1427;407;653;40;6;2325;15524;4;1189;1159;566;548;37;7;2342;13490;4;2463;463;33;8;2292;13282;4;2413;467;33;9;1239;7214;4;1324;510;33
21.10.17;15:40:00;1;347;5365;0;2;1849;9637;4;1955;387;37;3;941;6151;4;1021;540;34;4;1413;8835;5;1472;238;34;5;3083;20079;4;1774;1414;411;657;40;6;2365;15325;4;1234;1208;575;554;37;7;2505;13298;4;2621;451;33;8;2469;13093;4;2590;461;33;9;1330;7112;4;1418;508;33
21.10.17;15:35:00;1;385;5335;0;2;1760;9482;4;1862;390;37;3;942;6072;4;1021;517;34;4;1383;8717;5;1440;236;34;5;3019;19822;4;1713;1353;409;638;40;6;2347;15129;4;1196;1184;573;550;37;7;2404;13089;4;2525;460;33;8;2354;12889;4;2473;462;33;9;1260;7002;4;1346;520;33
21.10.17;15:30:00;1;410;5302;0;2;1024;9335;4;1097;379;37;3;637;5993;4;700;489;35;4;870;8601;5;906;227;35;5;2031;19569;4;1159;907;399;630;40;6;1538;14934;4;809;788;557;544;37;7;1546;12889;4;1637;456;33;8;1520;12693;4;1609;457;33;9;807;6897;4;870;500;33
21.10.17;15:25:00;1;449;5267;0;2;1564;9247;4;1660;379;38;3;1018;5938;4;1093;491;35;4;1453;8527;5;1513;227;35;5;3174;19398;4;1796;1444;414;645;40;6;2545;14804;4;1312;1278;564;538;37;7;1921;12757;4;2019;452;34;8;1840;12561;4;1936;455;33;9;994;6827;4;1065;494;34
21.10.17;15:20:00;1;320;5230;0;2;2598;9119;4;2741;393;39;3;1612;5855;4;1710;475;36;4;2112;8408;5;2200;229;35;5;4476;19123;4;2537;2042;421;636;40;6;3544;14595;4;1828;1792;574;542;36;7;3490;12599;4;3663;460;34;8;2885;12410;4;3037;463;33;9;1492;6746;4;1588;520;35
21.10.17;15:15:00;1;298;5204;0;2;1961;8884;4;2075;391;38;3;1184;5711;4;1268;490;35;4;1622;8221;5;1690;230;35;5;3578;18730;4;2033;1614;409;649;40;6;2793;14294;4;1471;1397;575;558;36;7;2567;12319;4;2695;446;33;8;2475;12176;4;2597;453;33;9;1365;6626;4;1455;498;34
21.10.17;15:10:00;1;446;5160;0;2;2477;8713;4;2616;391;39;3;1553;5608;4;1654;501;36;4;2036;8081;5;2121;232;35;5;4416;18433;4;2513;2000;415;646;39;6;3128;14064;4;1611;1556;571;548;36;7;3113;12097;4;3263;453;34;8;3031;11961;4;3181;451;33;9;1678;6507;4;1780;494;34
21.10.17;15:05:00;1;672;5134;0;2;2772;8506;4;2925;389;38;3;1760;5479;4;1866;488;35;4;2331;7911;5;2428;232;35;5;4929;18053;4;2791;2227;412;655;39;6;3693;13777;4;1897;1832;567;551;36;7;3332;11836;4;3489;440;33;8;3262;11706;4;3416;457;33;9;1711;6365;4;1814;497;34
21.10.17;15:00:00;1;1603;5057;0;2;2511;8274;4;2643;393;37;3;1611;5331;4;1713;499;35;4;2202;7715;5;2294;236;34;5;4714;17641;4;2687;2124;419;655;39;6;3645;13462;4;1874;1825;579;564;36;7;3534;11556;4;3697;455;34;8;3499;11432;4;3669;450;33;9;1947;6222;4;2064;527;33
21.10.17;14:55:00;1;564;4918;0;2;1530;8061;4;1623;393;36;3;990;5193;4;1064;504;34;4;1350;7527;5;1406;233;34;5;2968;17259;4;1700;1344;412;658;39;6;2272;13167;4;1139;1112;570;551;36;7;1995;11253;4;2098;459;34;8;1996;11133;4;2097;463;33;9;1092;6053;4;1169;523;33
21.10.17;14:50:00;1;731;4852;0;2;1125;7932;4;1204;389;36;3;719;5110;4;786;494;34;4;977;7413;5;1018;227;34;5;2211;17021;4;1252;984;408;651;40;6;1690;12984;4;866;855;565;548;36;7;825;11085;4;874;276;20;8;1093;10964;4;1150;365;27;9;728;5962;4;790;508;33
21.10.17;14:45:00;1;294;4802;0;2;1245;7838;4;1328;386;37;3;793;5050;4;860;493;35;4;1084;7331;5;1129;234;35;5;2474;16837;4;1442;1134;409;643;40;6;1878;12843;4;972;955;571;552;36;7;1475;10968;4;1560;460;34;8;1467;10851;4;1550;458;34;9;795;5900;4;860;508;34
21.10.17;14:40:00;1;289;4777;0;2;1109;7735;4;1187;390;38;3;710;4984;4;775;489;35;4;975;7241;5;1016;228;35;5;2197;16630;4;1271;998;404;642;40;6;1676;12687;4;847;843;564;546;37;7;1303;10847;4;1379;455;35;8;1302;10730;4;1379;457;34;9;707;5834;4;768;499;34
21.10.17;14:35:00;1;288;4753;0;2;1013;7642;4;1087;384;39;3;648;4925;4;710;486;36;4;910;7160;5;948;228;36;5;2117;16448;4;1214;953;401;637;41;6;1608;12548;4;830;820;557;543;37;7;1387;10738;4;1470;448;36;8;1380;10621;4;1461;447;35;9;748;5775;4;811;498;35
21.10.17;14:30:00;1;245;4728;0;2;1024;7557;4;1098;373;40;3;645;4870;4;705;473;36;4;901;7084;5;939;223;37;5;2084;16272;4;1197;946;394;632;41;6;1543;12414;4;776;769;544;535;37;7;1440;10622;4;1523;439;36;8;1430;10507;4;1509;441;36;9;771;5713;4;837;486;36